Location: Unspecified
(52.4292°N, 19.3359°E)
Time: 00:13:31
(UTC+02:00)

A-11 Canister half - Pass Details

Date: 20 May 2024
Orbit: 1515 x 1685 km, 47.2° (Epoch: 19 June)

Event Time Altitude Azimuth Distance (km) Brightness Sun altitude
Rises 03:53:47 0° 227° (SW) 4,745 - -6.1°
Exits shadow 03:55:59 - 224° (SW) 4,060 10.5 -5.9°
Reaches altitude 10° 03:57:02 10° 221° (SW) 3,741 10.4 -5.8°
Maximum altitude 04:05:47 46° 153° (SSE) 1,975 9.5 -4.8°
Drops below altitude 10° 04:14:24 10° 84° (E) 3,679 12.0 -3.8°
Sets 04:17:33 0° 79° (E) 4,661 12.8 -3.4°
